Location: Arnecker
(47.7354°N, 9.6803°E)
Time: 00:27:17
(UTC+00:00)

Daily predictions for brighter satellites

Satellite Brightness Start Highest point End
(mag) Time Altitude Azimuth Time Altitude Azimuth Time Altitude Azimuth
Cosmos 2278 Rocket 4.4 02:31:43 20° E 02:31:43 20° E 02:35:02 10° NE
USA 215 4.5 02:26:45 10° E 02:30:30 36° E 02:30:30 36° E
COSMOS 2406 3.4 03:52:21 61° S 03:52:21 61° S 03:57:01 10° SSE
Meteor 2-2 Rocket 4.3 03:53:01 65° S 03:53:01 65° S 03:57:54 10° S
Cosmos 2082 Rocket 2.3 03:52:50 58° N 03:53:48 71° ENE 03:59:23 10° SE
Cosmos 2344 4.1 03:47:44 10° SSW 03:55:01 55° ESE 04:02:27 10° NE
COSMOS 2455 3.0 03:57:05 57° SSW 03:57:05 57° SSW 04:02:10 10° SSE
Cosmos 1891 Rocket 4.4 03:51:34 13° N 03:57:26 85° W 04:03:55 10° S
Cosmos 1842 Rocket 4.3 03:58:55 49° SE 03:58:55 49° SE 04:02:17 10° SSE
Cosmos 1850 Rocket 4.5 03:54:58 19° S 03:58:46 60° ESE 04:04:03 10° NNE
Cosmos 1513 Rocket 4.4 04:02:48 17° NNW 04:07:54 76° W 04:14:16 10° S
MOS 1-B Rocket 4.1 04:03:44 10° SSE 04:10:28 81° ENE 04:16:22 10° NNW
Cosmos 2034 Rocket 4.0 04:07:40 10° N 04:13:55 80° E 04:20:10 10° SSE
Cosmos 1900 4.2 04:13:44 70° NNW 04:14:18 89° NE 04:19:21 10° SE
Cosmos 2278 Rocket 2.0 04:13:39 61° WSW 04:14:29 71° WNW 04:20:11 10° NNE
USA 215 3.3 04:09:39 10° SE 04:16:06 62° SW 04:17:51 47° W
Cosmos 1943 Rocket 3.9 04:14:03 10° SSE 04:19:03 34° ESE 04:24:05 10° NE
CZ-2C R/B 2.9 04:14:52 10° SSE 04:20:23 72° ENE 04:25:50 10° N
BREEZE M DEB (TANK) 3.0 04:21:18 65° W 04:21:57 87° NNW 04:24:47 10° ENE
Cosmos 1072 Rocket 4.4 04:18:58 20° NNW 04:23:20 59° W 04:29:18 10° S
SKYMED 2 3.7 04:19:27 10° SSE 04:23:46 75° ENE 04:26:01 28° N
Cosmos 540 Rocket 3.3 04:25:26 57° WNW 04:26:07 64° WSW 04:31:11 10° S
Cosmos 2346 Rocket 4.4 04:23:36 10° SSW 04:29:50 71° W 04:36:08 10° N
Cosmos 2221 3.9 04:32:04 25° SSW 04:32:04 25° SSW 04:34:03 10° SSW
Cosmos 1933 3.8 04:27:43 19° N 04:30:27 60° ENE 04:34:24 10° SSE
Cosmos 1833 Rocket 3.8 04:34:00 26° SW 04:34:00 26° SW 04:37:12 10° SSW
Cosmos 1741 Rocket 3.8 04:30:04 14° SSW 04:34:39 75° WNW 04:39:53 10° NNE
SL-8 R/B 3.6 04:35:05 50° WSW 04:36:20 85° SSE 04:41:09 10° E
CZ-4B R/B 4.3 04:32:07 10° NNE 04:36:28 71° ESE 04:40:55 10° S
Tsikada Rocket 4.2 04:30:42 10° S 04:36:50 73° E 04:43:04 10° NNE
Meteor 1-31 Rocket 3.0 04:34:09 10° NNE 04:38:00 69° ESE 04:41:53 10° S
Cosmos 1634 Rocket 4.4 04:35:45 10° N 04:42:02 64° ENE 04:48:13 10° SSE
Cosmos 2151 3.1 04:38:05 10° S 04:42:20 74° E 04:46:39 10° NNE
Cosmos 1812 4.2 04:46:06 10° N 04:49:43 36° ENE 04:53:17 10° SE
CZ-4C R/B 2.7 04:47:06 10° SSE 04:50:18 81° ENE 04:51:33 34° N
Cosmos 841 Rocket 3.6 04:48:36 32° NW 04:50:40 50° WSW 04:55:37 10° S
H-2A R/B 3.2 04:52:44 10° SE 04:56:41 42° ENE 05:00:46 10° N
SJ-12 4.0 04:53:29 10° N 04:57:32 54° WNW 05:01:33 10° SSW
Cosmos 2098 Rocket 4.2 04:54:57 10° SSE 04:58:06 37° E 05:01:55 10° NNE
Envisat 2.9 04:53:23 10° N 04:58:25 64° WNW 05:03:26 10° SSW
Cosmos 1570 Rocket 3.9 05:01:27 14° NNW 05:05:54 70° WSW 05:11:06 10° S
YAOGAN 6 3.1 05:03:14 10° N 05:06:39 36° WNW 05:10:01 10° SW
Cosmos 1076 Rocket 3.9 05:03:21 10° SW 05:07:29 40° WNW 05:11:39 10° N
DMSP B5D2-2 4.2 05:04:21 10° SSE 05:09:34 81° ENE 05:14:49 10° NNW
Cosmos 2369 Rocket 3.8 05:05:07 10° S 05:10:13 38° ESE 05:15:21 10° NE
CBERS 1 LM4 rocket 4.4 05:05:38 10° N 05:10:19 58° WNW 05:15:06 10° SSW
COSMO-SKYMED 1 3.1 05:07:57 10° SSW 05:11:57 36° W 05:14:38 18° NW
Aureole 1 Rocket 2.5 05:10:43 10° SSW 05:13:50 66° ESE 05:16:48 10° NNE
Cosmos 1867 3.5 05:10:51 17° NW 05:15:11 81° WSW 05:20:38 10° SSE
Cosmos 1241 Rocket 4.4 05:10:06 14° NW 05:15:36 87° SW 05:21:48 10° SSE
FALCON 9 DEB 4.3 05:13:30 10° SSW 05:16:09 34° SE 05:18:48 10° ENE
APEX 2.3 05:16:51 31° NW 05:17:56 64° WSW 05:20:49 10° SSE
Cosmos 921 Rocket 3.3 05:13:47 10° NNW 05:18:09 70° ENE 05:22:32 10° SSE
Cosmos 2084 Rocket 3.1 05:14:39 10° SW 05:18:30 85° NW 05:22:24 10° NE
NOSS 3-2 (A) 3.3 05:13:57 10° SW 05:19:34 81° NW 05:26:09 10° NE
H-2A R/B 3.4 05:16:22 10° N 05:19:35 29° WNW 05:22:47 10° SW
Cosmos 1328 Rocket 4.3 05:15:42 10° N 05:20:04 54° ENE 05:24:21 10° SSE
FALCON 9 DEB 3.7 05:19:15 10° SW 05:21:59 44° SE 05:24:45 10° ENE
NOSS 3-2 (C) 3.7 05:17:33 10° SSW 05:23:02 67° SE 05:29:24 10° NE
CENTAUR R/B 2.5 05:20:20 10° SW 05:26:14 90° WNW 05:33:26 10° NE
Cosmos 1151 Rocket 3.1 05:21:54 10° N 05:26:19 87° E 05:30:42 10° S
Cosmos 968 Rocket 3.6 05:22:04 10° SSW 05:27:14 82° ESE 05:32:25 10° NNE
CZ-4B R/B 2.6 05:26:14 10° NNE 05:29:55 89° ESE 05:33:28 10° SSW
Cosmos 2208 Rocket 4.2 05:24:47 10° NNW 05:30:07 55° WSW 05:35:23 10° S
Gbstr 26 Del rocket 3.2 05:28:19 19° WNW 05:30:51 50° SSW 05:35:07 10° SE
Meteor 2-6 Rocket 4.3 05:25:37 10° N 05:31:07 80° ENE 05:36:31 10° SSE
Meteor 2-3 Rocket 3.9 05:26:09 10° SSW 05:31:37 50° WNW 05:37:10 10° N
Cosmos 2082 Rocket 3.5 05:34:44 15° WNW 05:37:17 20° W 05:41:14 10° SW
NOSS 8 (A) 4.4 05:37:00 10° WSW 05:40:13 46° NW 05:43:02 10° NNE
Meteor PRIRODA 3.6 05:37:08 10° N 05:40:42 58° WNW 05:44:15 10° SSW
CZ-4B R/B 1.9 05:37:53 10° SSE 05:41:12 60° ENE 05:44:31 10° N
Cosmos 2297 3.7 05:36:48 10° SW 05:42:29 61° WNW 05:48:12 10° NNE
USA 238 DEB 3.6 05:44:50 10° SW 05:51:20 79° NW 05:58:17 10° NE
USA 238 3.6 05:44:56 10° SW 05:51:27 79° NW 05:58:23 10° NE
Cosmos 1515 Rocket 4.0 05:48:37 10° N 05:53:01 66° E 05:57:20 10° SSE
Cosmos 1782 3.9 05:49:45 10° NNW 05:53:02 25° W 05:56:16 10° SW
NOAA 11 4.4 05:49:35 10° N 05:54:49 48° WNW 06:00:03 10° SW
CZ-2C R/B 3.0 05:51:57 10° N 05:56:37 55° WNW 06:01:22 10° SSW
Cosmos 1862 3.3 05:53:09 10° SSW 05:57:04 63° WNW 06:01:00 10° N
Okean O Rocket 4.0 05:54:18 10° NE 05:58:09 28° E 06:01:57 10° SSE
NOAA 6 4.1 05:54:05 10° NNE 05:59:15 87° ESE 06:04:22 10° SSW
Cosmos 2278 Rocket 3.7 05:56:00 10° WNW 05:59:39 17° NW 06:03:19 10° N
CZ-2C R/B 4.0 05:57:24 10° SW 06:01:12 19° W 06:04:58 10° NW
Cosmos 1943 Rocket 2.5 05:57:15 10° SW 06:02:40 45° NW 06:08:07 10° NNE
Meteor 2-15 4.4 05:58:08 10° NNW 06:04:12 78° W 06:10:14 10° S
Okean 3 Rocket 3.7 06:00:56 10° SSW 06:05:23 58° WNW 06:09:54 10° N
Cosmos 1486 Rocket 4.0 06:01:08 10° SSW 06:06:27 78° WNW 06:11:47 10° NNE
Cosmos 2344 4.0 06:02:40 10° WSW 06:09:39 43° NNW 06:17:29 10° NE
CORIOLIS 4.2 06:04:17 10° NNE 06:09:46 88° WNW 06:15:13 10° SSW
Cosmos 1656 Rocket 3.8 06:04:33 10° SSW 06:09:57 79° ESE 06:15:24 10° NNE
FengYun 1-2 T 4.2 06:04:42 10° N 06:10:10 67° WNW 06:15:35 10° SSW
ADEOS 4.3 06:05:45 10° N 06:10:18 31° WNW 06:14:51 10° WSW
Cosmos 1833 4.3 06:06:14 10° NNW 06:11:57 87° ENE 06:17:40 10° SSE
